Location: Anscroft
(39.1254°N, 77.0539°W)
Time: 12:07:20
(UTC+00:00)

Daily predictions for brighter satellites

Satellite Brightness Start Highest point End
(mag) Time Altitude Azimuth Time Altitude Azimuth Time Altitude Azimuth
Cosmos 2084 Rocket 4.0 22:10:16 10° NNW 22:14:10 36° NE 22:18:03 10° ESE
Cosmos 1697 Rocket 2.7 22:10:59 10° SSW 22:16:32 69° ESE 22:22:07 10° NNE
Cosmos 405 Rocket 3.8 22:13:48 10° NNW 22:16:50 39° W 22:19:50 10° SSW
Cosmos 1867 4.0 22:13:36 10° NNW 22:18:41 39° NE 22:23:45 10° ESE
Cosmos 1825 Rocket 4.3 22:15:36 10° NNE 22:19:25 29° ENE 22:23:10 10° SE
Cosmos 2098 Rocket 3.5 22:15:38 10° SSW 22:19:35 66° W 22:24:17 10° N
NOSS 2-3 (E) 3.2 22:16:11 10° SSW 22:19:54 60° ESE 22:23:31 10° NE
NOSS 2-3 (D) 3.3 22:16:42 10° SSW 22:20:25 55° ESE 22:24:03 10° NE
Cosmos 1758 Rocket 3.9 22:18:34 10° NNW 22:22:50 68° W 22:27:04 10° S
ARIANE 5 R/B 2.8 22:18:21 10° SE 22:23:07 45° ENE 22:27:59 10° N
IRIDIUM 106 4.3 22:19:27 10° N 22:24:40 64° E 22:29:49 10° SSE
Meteor 1-28 Rocket 4.4 22:27:41 10° N 22:30:48 37° WNW 22:33:53 10° SW
UNK 3.8 22:27:11 10° NNE 22:31:47 83° WNW 22:36:19 10° SSW
Cosmos 1076 Rocket 4.3 22:32:36 10° NNE 22:36:22 28° ENE 22:40:06 10° SE
SMAP 3.0 22:32:04 10° SSE 22:36:43 82° ENE 22:41:24 10° N
COSMOS 2455 4.5 22:34:17 10° SE 22:37:12 14° ESE 22:39:11 12° E
ATLAS CENTAUR R/B 2.6 22:34:29 10° NW 22:37:23 33° WSW 22:40:10 10° S
Cosmos 2058 Rocket 4.2 22:34:48 10° SE 22:38:24 25° E 22:42:02 10° NE
Cosmos 1607 4.0 22:33:05 10° NNW 22:39:21 89° NE 22:45:41 10° SSE
COSMO-SKYMED 1 3.8 22:38:13 13° NE 22:40:40 20° E 22:43:42 10° SE
SPOT 1/Viking Rocket 4.2 22:36:23 10° SE 22:40:56 32° ENE 22:45:29 10° N
BlueWalker 3 3.5 22:37:58 10° WNW 22:41:18 35° SW 22:44:38 10° SSE
Landsat 7 3.7 22:36:50 10° SSE 22:41:27 70° ENE 22:46:05 10° N
Gbstr 26 Del rocket 3.8 22:38:38 10° W 22:42:33 37° NNW 22:45:43 12° NE
USA 290 3.8 22:43:37 10° NW 22:46:42 40° WSW 22:49:45 10° S
Cosmos 1606 Rocket 3.6 22:44:30 10° S 22:48:52 82° W 22:53:19 10° N
Meteor 1-20 Rocket 4.4 22:44:51 10° NNW 22:50:18 75° W 22:55:45 10° S
IRS-P3 4.2 22:45:11 10° SSE 22:50:22 57° ENE 22:55:34 10° N
CZ-2D R/B 2.7 22:53:17 10° S 22:56:24 83° W 22:59:33 10° NNW
Hubble Space Telescope 3.0 22:55:32 10° SSW 22:57:29 14° S 22:59:26 10° SE
Cosmos 2297 Rocket 3.3 22:54:56 10° NW 23:00:20 48° WSW 23:05:44 10° S
AQUARIUS 4.0 22:56:27 10° SSE 23:00:50 82° ENE 23:05:15 10° N
Resurs 1-3 4.3 22:57:46 10° SE 23:01:27 28° ENE 23:05:09 10° N
SL-16 R/B 4.0 23:00:13 10° SE 23:01:52 13° ESE 23:01:52 13° ESE
Cosmos 1538 Rocket 4.4 22:57:55 10° N 23:02:54 41° ENE 23:07:55 10° SE
Cosmos 2266 Rocket 4.4 22:57:11 10° NNW 23:03:14 64° W 23:09:10 10° S
CZ-4C R/B 3.2 22:57:29 10° NW 23:04:58 86° WSW 23:13:58 10° SSE
Meteor 1-26 Rocket 4.3 23:02:36 10° SSE 23:07:46 47° E 23:12:48 11° NNE
Cosmos 1726 Rocket 4.2 23:08:01 10° SSW 23:12:37 62° W 23:17:12 10° N
Okean 1 3.4 23:09:19 10° SSE 23:12:42 39° E 23:13:11 37° ENE
Cosmos 1980 Rocket 2.3 23:14:24 10° SSW 23:20:04 80° WNW 23:25:04 14° NNE
Cosmos 2219 3.6 23:15:35 10° N 23:20:59 40° ENE 23:24:18 21° ESE
Cosmos 1553 Rocket 4.1 23:16:02 10° SSE 23:21:57 52° E 23:27:58 10° NNE
Spot 4 Rocket 4.0 23:17:52 10° SSE 23:22:50 55° ENE 23:27:49 10° N
Cosmos-2242 2.8 23:18:41 10° S 23:22:53 72° E 23:25:43 20° NNE
YAOGAN 1 2.5 23:20:20 10° SSE 23:24:27 53° ENE 23:28:37 10° N
Cosmos 1898 Rocket 3.3 23:22:21 10° SSW 23:27:29 81° ESE 23:30:53 22° NNE
Meteor 1-5 Rocket 4.5 23:25:20 10° NNW 23:30:41 68° W 23:36:09 10° S
SKYMED 2 3.9 23:27:47 10° N 23:32:06 65° WNW 23:36:23 10° SSW
SL-24 R/B - RUBIN 2 4.2 23:28:00 10° S 23:33:25 50° ESE 23:34:30 43° E
Cosmos 2369 3.6 23:27:50 10° SSW 23:33:32 73° ESE 23:36:34 29° NNE
Cosmos 2263 Rocket 2.1 23:29:20 10° NNW 23:35:02 77° ENE 23:40:43 10° SSE
Cosmos 372 Rocket 4.3 23:33:51 10° SSW 23:38:56 63° WNW 23:42:49 17° N
Helios 1A Rocket 3.1 23:46:13 48° SSW 23:46:13 48° SSW 23:48:44 10° SSW
Cosmos 1937 Rocket 3.3 23:40:44 10° SSW 23:45:55 87° ESE 23:47:52 39° NNE
Cosmos 858 Rocket 4.4 23:43:11 10° S 23:48:18 64° ESE 23:48:48 60° ENE
Cosmos 1244 Rocket 4.3 23:42:31 10° N 23:48:49 83° E 23:54:59 10° S
Cosmos 2227 Rocket 3.4 23:46:29 10° NW 23:51:46 42° WSW 23:57:02 10° S
